sat.trackr.live / text

‹ back to catalog

HULIANWANG DIGUI-134

NORAD 67242 · 2025-311G

PAYLOAD ACTIVE UNKNOWN

§ Identity

Operator
Country
PRC
Launch date
2025-12-25
Launch site
WSC
Launch vehicle
Mass (kg)
RCS (m²)

External: N2YO · Heavens-Above · Gunter

§ Orbital elements

Epoch: 2026-05-24T20:08:39.456384Z

Period
108.33 min
Inclination
50.0019°
Eccentricity
0.0000993
Mean motion
13.29322649 rev/d
Perigee alt
1,148.6 km
Apogee alt
1,150.1 km
Semi-major
7,527.5 km
B*
5.8072e-5
RAAN
199.5063°
Arg perigee
245.6188°
Mean anomaly
114.4581°
Rev number
2,023

§ Raw data

HULIANWANG DIGUI-1341 67242U 25311G   26144.83934556 -.00000097  00000+0  58072-4 0  99952 67242  50.0019 199.5063 0000993 245.6188 114.4581 13.29322649 20238

JSON: /api/v1/satellites/67242 · /tle

For live sub-satellite position, see the globe view (requires WebGL).

§ Visibility from observer

Set your observer location to see the next 7 days of passes ≥ 10°. The values pass through the URL so the page stays shareable.

No JS? Fill the form by hand. The geolocation button needs JavaScript.